Ann Arbor, MI

10:48 AM EDT on April 23, 2017 (GMT -0400)
Ann Arbor Municipal

Weather History for KARB - October, 2014

Change the Weather History Date:

Tuesday, October 14, 2014

  Actual Average Record
Temperature  
Mean Temperature 64 °F -  
Max Temperature 71 °F 59 °F 75 °F (2000)
Min Temperature 59 °F 35 °F 24 °F (2002)
Growing Degree Days 14 (Base 50)    
Moisture  
Dew Point 58 °F    
Average Humidity 80    
Maximum Humidity 90    
Minimum Humidity 61    
Precipitation  
Precipitation 0.36 in - - ()
Sea Level Pressure  
Sea Level Pressure 29.66 in    
Wind  
Wind Speed 9 mph (SSE)    
Max Wind Speed 15 mph    
Max Gust Speed 29 mph    
Visibility 9 miles    
Events Rain    
Averages and records for this station are not official NWS values.
T = Trace of Precipitation, MM = Missing Value Source: NWS Daily Summary

Daily Weather History Graph

Daily Weather History Graph

Search for Another Location

Airport or City:

Trip Planner

Search our weather history database for the weather conditions in past years. The results will help you decide how hot, cold, wet, or windy it might be!

Date:

Astronomy

Oct. 14, 2014 Rise Set
Actual Time 7:46 AM EDT 6:54 PM EDT
Civil Twilight 7:18 AM EDT 7:22 PM EDT
Nautical Twilight 6:45 AM EDT 7:55 PM EDT
Astronomical Twilight 6:13 AM EDT 8:27 PM EDT
Moon 11:56 PM EDT (10/14) 1:49 PM EDT (10/14)
Length of Visible Light 12h 04m
Length of Day
11h 08m
Waning Gibbous, 61% of the Moon is Illuminated
Oct 14
Waning Gibbous
Oct 15
Last Quarter
Oct 23
New
Oct 30
First Quarter
Nov 6
Full

Hourly Weather History & Observations

Time (EDT) Temp. Dew Point Humidity Pressure Visibility Wind Dir Wind Speed Gust Speed Precip Events Conditions
12:53 AM 66.9 °F 60.1 °F 79% 29.76 in 10.0 mi SSE 10.4 mph - N/A   Clear
1:53 AM 66.9 °F 60.1 °F 79% 29.74 in 10.0 mi SSE 11.5 mph - N/A   Overcast
2:53 AM 66.9 °F 59.0 °F 76% 29.72 in 10.0 mi SSE 8.1 mph - N/A   Mostly Cloudy
3:53 AM 66.9 °F 57.9 °F 73% 29.69 in 10.0 mi SSE 8.1 mph - N/A   Mostly Cloudy
4:53 AM 70.0 °F 55.9 °F 61% 29.68 in 10.0 mi South 12.7 mph 18.4 mph N/A   Overcast
5:53 AM 70.0 °F 55.9 °F 61% 29.67 in 10.0 mi South 10.4 mph 20.7 mph N/A   Scattered Clouds
6:53 AM 68.0 °F 55.9 °F 65% 29.66 in 10.0 mi SSE 10.4 mph 17.3 mph N/A   Partly Cloudy
7:53 AM 69.1 °F 55.9 °F 63% 29.65 in 10.0 mi South 9.2 mph - N/A   Clear
8:53 AM 69.1 °F 57.0 °F 65% 29.66 in 10.0 mi South 8.1 mph - N/A   Mostly Cloudy
9:53 AM 68.0 °F 57.9 °F 70% 29.67 in 10.0 mi South 8.1 mph - 0.00 in   Overcast
10:53 AM 68.0 °F 59.0 °F 73% 29.67 in 10.0 mi South 9.2 mph - 0.00 in Rain Light Rain
11:53 AM 68.0 °F 59.0 °F 73% 29.65 in 10.0 mi SSE 6.9 mph - 0.00 in   Overcast
12:53 PM 70.0 °F 59.0 °F 68% 29.63 in 10.0 mi SSE 6.9 mph 18.4 mph 0.00 in Rain Light Rain
1:53 PM 66.0 °F 61.0 °F 84% 29.61 in 7.0 mi SSE 8.1 mph - 0.05 in Rain Light Rain
2:53 PM 66.0 °F 62.1 °F 87% 29.59 in 10.0 mi East 3.5 mph - 0.04 in   Overcast
3:53 PM 66.9 °F 62.1 °F 84% 29.59 in 3.0 mi South 12.7 mph 18.4 mph 0.06 in Rain Rain
4:07 PM 66.0 °F 62.1 °F 87% 29.60 in 4.0 mi SSE 9.2 mph 21.9 mph 0.01 in Rain Light Rain
4:18 PM 66.0 °F 62.1 °F 87% 29.61 in 6.0 mi SW 15.0 mph 23.0 mph 0.02 in Rain Light Rain
4:28 PM 64.9 °F 61.0 °F 87% 29.62 in 6.0 mi SW 12.7 mph 28.8 mph 0.02 in Rain Light Rain
4:53 PM 63.0 °F 57.0 °F 81% 29.61 in 10.0 mi SSW 8.1 mph - 0.03 in Rain Light Rain
5:53 PM 62.1 °F 55.9 °F 80% 29.62 in 10.0 mi Variable 4.6 mph - 0.05 in Rain Light Rain
6:53 PM 60.1 °F 55.9 °F 86% 29.64 in 10.0 mi SE 6.9 mph - 0.07 in Rain Light Rain
7:53 PM 59.0 °F 55.9 °F 90% 29.64 in 10.0 mi SSE 5.8 mph - 0.02 in Rain Light Rain
8:38 PM 60.1 °F 57.0 °F 90% 29.68 in 9.0 mi South 4.6 mph - 0.04 in Rain Light Rain
8:49 PM 60.8 °F 57.2 °F 88% 29.66 in 10.0 mi SE 5.8 mph - 0.04 in Rain Light Rain
8:53 PM 60.1 °F 57.0 °F 90% 29.64 in 10.0 mi ESE 4.6 mph - 0.04 in   Overcast
9:15 PM 60.1 °F 57.0 °F 90% 29.66 in 10.0 mi SE 5.8 mph - N/A   Overcast
9:30 PM 60.1 °F 57.0 °F 90% 29.69 in 10.0 mi South 5.8 mph - N/A   Overcast
9:53 PM 60.1 °F 57.0 °F 90% 29.69 in 10.0 mi SSE 8.1 mph - N/A   Overcast
10:53 PM 60.1 °F 55.9 °F 86% 29.67 in 10.0 mi South 3.5 mph - N/A   Overcast
11:53 PM 59.0 °F 55.9 °F 90% 29.68 in 10.0 mi South 9.2 mph - N/A   Overcast